Location: Lower Kingswood
(51.2667°N, 0.2167°W)
Time: 11:58:50
(UTC+00:00)

NOSS 3 (A) - Pass Details

Date: 26 September 2023
Orbit: 160 x 953 km, 63.3° (Epoch: 23 April)

Event Time Altitude Azimuth Distance (km) Brightness Sun altitude
Exits shadow 05:04:33 18° 257° (WSW) 505 4.5 -8.3°
Maximum altitude 05:05:27 36° 318° (NW) 288 3.7 -8.2°
Drops below altitude 10° 05:07:03 10° 31° (NNE) 794 6.8 -8.0°
Sets 05:08:55 0° 41° (NE) 1,627 8.6 -7.7°
